timestamp,wind_dir_avg,wind_spd_avg,wind_spd_max_dir,wind_spd_gust,battery_voltage,lat,long
2024-02-21 00:04:00+00:00,290.0,10.25,289.0,12.5,12.25,47.59359,-54.27349
2024-02-21 00:14:00+00:00,291.0,13.41,293.0,17.3,12.17,47.59359,-54.27349
2024-02-21 00:24:00+00:00,296.0,11.19,294.0,15.76,12.17,47.59359,-54.27349
2024-02-21 00:34:00+00:00,298.0,13.4,294.0,18.92,12.17,47.59359,-54.27349
2024-02-21 00:44:00+00:00,291.0,11.35,295.0,13.99,12.17,47.59359,-54.27349
2024-02-21 00:54:00+00:00,293.0,10.12,294.0,12.33,12.17,47.59359,-54.27349
2024-02-21 01:04:00+00:00,298.0,9.6,309.0,11.63,12.17,47.59359,-54.27349
2024-02-21 01:14:01+00:00,303.0,9.22,303.0,10.8,12.17,47.59359,-54.27349
2024-02-21 01:24:01+00:00,283.0,7.38,294.0,9.55,12.17,47.59359,-54.27349
2024-02-21 01:34:01+00:00,273.0,12.25,280.0,15.8,12.17,47.59359,-54.27349
2024-02-21 01:44:01+00:00,287.0,13.5,286.0,16.37,12.17,47.59359,-54.27349
2024-02-21 01:54:01+00:00,290.0,12.79,285.0,17.72,12.17,47.59359,-54.27349
2024-02-21 02:04:01+00:00,288.0,12.4,284.0,18.14,12.17,47.59359,-54.27349
2024-02-21 02:14:00+00:00,290.0,13.89,290.0,19.46,12.09,47.59359,-54.27349
2024-02-21 02:24:00+00:00,298.0,11.99,288.0,17.34,12.09,47.59359,-54.27349
2024-02-21 02:34:00+00:00,281.0,13.77,280.0,18.61,12.09,47.59359,-54.27349
2024-02-21 02:44:00+00:00,276.0,13.29,280.0,17.58,12.09,47.59359,-54.27349
2024-02-21 02:54:00+00:00,272.0,11.17,269.0,16.38,12.09,47.59359,-54.27349
2024-02-21 03:04:00+00:00,273.0,13.47,270.0,17.48,12.09,47.59359,-54.27349
2024-02-21 03:14:00+00:00,271.0,14.05,268.0,17.44,12.09,47.59359,-54.27349
2024-02-21 03:24:00+00:00,280.0,10.62,281.0,17.11,12.09,47.59359,-54.27349
2024-02-21 03:34:00+00:00,276.0,12.05,276.0,18.06,12.09,47.59359,-54.27349
2024-02-21 03:44:00+00:00,278.0,9.49,276.0,12.7,12.09,47.59359,-54.27349
2024-02-21 03:54:00+00:00,288.0,10.32,289.0,13.7,12.09,47.59359,-54.27349
2024-02-21 04:04:00+00:00,280.0,9.87,270.0,14.75,12.09,47.59359,-54.27349
2024-02-21 04:14:01+00:00,283.0,9.59,275.0,15.69,12.09,47.59359,-54.27349
2024-02-21 04:24:01+00:00,275.0,12.45,275.0,17.47,12.09,47.59359,-54.27349
2024-02-21 04:34:01+00:00,287.0,7.88,284.0,12.15,12.09,47.59359,-54.27349
2024-02-21 04:44:01+00:00,289.0,8.13,294.0,12.91,12.09,47.59359,-54.27349
2024-02-21 04:54:01+00:00,271.0,11.89,276.0,17.52,12.09,47.59359,-54.27349
2024-02-21 05:04:01+00:00,276.0,12.09,282.0,17.25,12.09,47.59359,-54.27349
2024-02-21 05:14:00+00:00,278.0,11.51,272.0,17.5,12.01,47.59359,-54.27349
2024-02-21 05:24:00+00:00,272.0,13.85,276.0,17.79,12.01,47.59359,-54.27349
2024-02-21 05:34:00+00:00,281.0,11.49,287.0,18.17,12.01,47.59359,-54.27349
2024-02-21 05:44:00+00:00,274.0,14.16,281.0,18.19,12.01,47.59359,-54.27349
2024-02-21 05:54:00+00:00,273.0,11.99,278.0,16.57,12.01,47.59359,-54.27349
2024-02-21 06:04:00+00:00,279.0,14.81,288.0,18.8,12.01,47.59359,-54.27349
2024-02-21 06:14:00+00:00,274.0,14.84,276.0,18.0,12.01,47.59359,-54.27349
2024-02-21 06:24:00+00:00,278.0,15.22,280.0,18.09,12.01,47.59359,-54.27349
2024-02-21 06:34:00+00:00,286.0,10.92,283.0,17.76,12.01,47.59359,-54.27349
2024-02-21 06:44:00+00:00,304.0,9.19,292.0,12.62,12.01,47.59359,-54.27349
2024-02-21 06:54:00+00:00,290.0,11.04,280.0,17.38,12.01,47.59359,-54.27349
2024-02-21 07:04:00+00:00,294.0,9.83,288.0,14.36,12.01,47.59359,-54.27349
2024-02-21 07:14:00+00:00,290.0,14.45,289.0,19.02,11.93,47.59359,-54.27349
2024-02-21 07:24:00+00:00,283.0,15.09,284.0,18.57,11.93,47.59359,-54.27349
2024-02-21 07:34:00+00:00,290.0,8.97,296.0,13.18,11.93,47.59359,-54.27349
2024-02-21 07:44:00+00:00,290.0,9.24,292.0,12.9,11.93,47.59359,-54.27349
2024-02-21 07:54:00+00:00,302.0,10.31,305.0,14.34,11.93,47.59359,-54.27349
2024-02-21 08:04:00+00:00,298.0,13.2,293.0,19.83,11.93,47.59359,-54.27349
2024-02-21 08:14:00+00:00,302.0,8.19,303.0,12.62,11.93,47.59359,-54.27349
2024-02-21 08:24:00+00:00,305.0,8.81,303.0,13.14,11.93,47.59359,-54.27349
2024-02-21 08:34:00+00:00,304.0,8.13,304.0,10.2,11.93,47.59359,-54.27349
2024-02-21 08:44:00+00:00,304.0,9.28,302.0,12.75,11.93,47.59359,-54.27349
2024-02-21 08:54:00+00:00,296.0,8.01,290.0,11.4,11.93,47.59359,-54.27349
2024-02-21 09:04:00+00:00,294.0,7.39,312.0,10.39,11.93,47.59359,-54.27349
2024-02-21 09:14:00+00:00,288.0,9.44,292.0,10.78,11.86,47.59359,-54.27349
2024-02-21 09:24:00+00:00,295.0,8.03,294.0,10.04,11.86,47.59359,-54.27349
2024-02-21 09:34:00+00:00,277.0,7.3,275.0,12.45,11.86,47.59359,-54.27349
2024-02-21 09:44:00+00:00,305.0,8.57,293.0,12.14,11.86,47.59359,-54.27349
2024-02-21 09:54:00+00:00,293.0,8.44,292.0,10.85,11.86,47.59359,-54.27349
2024-02-21 10:04:00+00:00,295.0,8.29,285.0,13.98,11.86,47.59359,-54.27349
2024-02-21 10:14:00+00:00,295.0,9.3,301.0,11.63,11.86,47.59359,-54.27349
2024-02-21 10:24:00+00:00,300.0,9.16,301.0,11.57,11.86,47.59359,-54.27349
2024-02-21 10:34:00+00:00,300.0,8.73,298.0,13.83,11.86,47.59359,-54.27349
2024-02-21 10:44:00+00:00,298.0,7.49,295.0,11.49,11.86,47.59359,-54.27349
2024-02-21 10:54:00+00:00,299.0,8.2,290.0,12.73,11.86,47.59359,-54.27349
2024-02-21 11:04:00+00:00,300.0,8.47,311.0,10.45,11.86,47.59359,-54.27349
2024-02-21 11:14:00+00:00,290.0,8.02,285.0,12.3,13.68,47.59359,-54.27349
2024-02-21 11:24:00+00:00,285.0,7.13,286.0,12.22,13.68,47.59359,-54.27349
2024-02-21 11:34:00+00:00,284.0,7.63,281.0,10.37,13.68,47.59359,-54.27349
2024-02-21 11:44:00+00:00,292.0,7.71,290.0,12.08,13.68,47.59359,-54.27349
2024-02-21 11:54:00+00:00,276.0,8.45,278.0,10.11,13.68,47.59359,-54.27349
2024-02-21 12:04:00+00:00,284.0,8.92,292.0,11.05,13.68,47.59359,-54.27349
2024-02-21 12:14:01+00:00,285.0,7.26,278.0,10.34,14.48,47.59359,-54.27349
2024-02-21 12:24:01+00:00,284.0,12.65,283.0,16.69,14.48,47.59359,-54.27349
2024-02-21 12:34:01+00:00,287.0,10.08,279.0,17.18,14.48,47.59359,-54.27349
2024-02-21 12:44:01+00:00,300.0,8.2,284.0,11.31,14.48,47.59359,-54.27349
2024-02-21 12:54:01+00:00,289.0,9.26,283.0,13.61,14.48,47.59359,-54.27349
2024-02-21 13:04:01+00:00,289.0,7.97,286.0,12.59,14.48,47.59359,-54.27349
2024-02-21 13:14:01+00:00,295.0,8.71,286.0,17.47,14.4,47.59359,-54.27349
2024-02-21 13:24:01+00:00,291.0,7.47,290.0,11.36,14.4,47.59359,-54.27349
2024-02-21 13:34:01+00:00,281.0,7.55,272.0,11.44,14.4,47.59359,-54.27349
2024-02-21 13:44:01+00:00,301.0,8.36,297.0,12.2,14.4,47.59359,-54.27349
2024-02-21 13:54:01+00:00,305.0,8.66,302.0,10.02,14.4,47.59359,-54.27349
2024-02-21 14:04:01+00:00,283.0,8.19,288.0,9.75,14.4,47.59359,-54.27349
2024-02-21 14:14:00+00:00,289.0,8.87,286.0,10.64,13.84,47.59359,-54.27349
2024-02-21 14:24:00+00:00,290.0,7.4,303.0,9.29,13.84,47.59359,-54.27349
2024-02-21 14:34:00+00:00,288.0,8.14,301.0,9.83,13.84,47.59359,-54.27349
2024-02-21 14:44:00+00:00,281.0,7.77,277.0,11.67,13.84,47.59359,-54.27349
2024-02-21 14:54:00+00:00,292.0,8.27,289.0,9.37,13.84,47.59359,-54.27349
2024-02-21 15:04:00+00:00,290.0,8.14,294.0,9.56,13.84,47.59359,-54.27349
2024-02-21 15:14:00+00:00,276.0,7.85,274.0,9.97,13.68,47.59359,-54.27349
2024-02-21 15:24:00+00:00,285.0,7.48,276.0,9.67,13.68,47.59359,-54.27349
2024-02-21 15:34:00+00:00,274.0,7.44,288.0,8.8,13.68,47.59359,-54.27349
2024-02-21 15:44:00+00:00,281.0,7.91,287.0,9.2,13.68,47.59359,-54.27349
2024-02-21 15:54:00+00:00,286.0,9.17,289.0,10.71,13.68,47.59359,-54.27349
2024-02-21 16:04:00+00:00,281.0,6.07,284.0,9.59,13.68,47.59359,-54.27349
2024-02-21 16:14:00+00:00,262.0,7.31,252.0,9.28,13.92,47.59359,-54.27349
2024-02-21 16:24:00+00:00,285.0,7.76,284.0,9.42,13.92,47.59359,-54.27349
2024-02-21 16:34:00+00:00,272.0,9.2,263.0,11.57,13.92,47.59359,-54.27349
2024-02-21 16:44:00+00:00,265.0,8.45,266.0,10.15,13.92,47.59359,-54.27349
2024-02-21 16:54:00+00:00,295.0,7.78,289.0,8.62,13.92,47.59359,-54.27349
2024-02-21 17:04:00+00:00,302.0,8.79,298.0,10.19,13.92,47.59359,-54.27349
2024-02-21 17:14:00+00:00,291.0,7.68,289.0,9.66,14.64,47.59359,-54.27349
2024-02-21 17:24:00+00:00,293.0,7.62,286.0,8.83,14.64,47.59359,-54.27349
2024-02-21 17:34:00+00:00,299.0,5.33,294.0,6.65,14.64,47.59359,-54.27349
2024-02-21 17:44:00+00:00,300.0,7.44,309.0,9.25,14.64,47.59359,-54.27349
2024-02-21 17:54:00+00:00,313.0,7.36,320.0,9.11,14.64,47.59359,-54.27349
2024-02-21 18:04:00+00:00,318.0,7.83,312.0,9.31,14.64,47.59359,-54.27349
2024-02-21 18:14:00+00:00,303.0,7.1,305.0,8.03,13.76,47.59359,-54.27349
2024-02-21 18:24:00+00:00,309.0,7.5,312.0,8.95,13.76,47.59359,-54.27349
2024-02-21 18:34:00+00:00,317.0,5.64,333.0,7.1,13.76,47.59359,-54.27349
2024-02-21 18:44:00+00:00,292.0,5.26,280.0,6.96,13.76,47.59359,-54.27349
2024-02-21 18:54:00+00:00,298.0,4.86,295.0,6.87,13.76,47.59359,-54.27349
2024-02-21 19:04:00+00:00,318.0,4.25,326.0,6.19,13.76,47.59359,-54.27349
2024-02-21 19:14:00+00:00,290.0,6.16,301.0,7.09,13.84,47.59359,-54.27349
2024-02-21 19:24:00+00:00,281.0,5.58,282.0,6.3,13.84,47.59359,-54.27349
2024-02-21 19:34:00+00:00,297.0,5.52,289.0,7.09,13.84,47.59359,-54.27349
2024-02-21 19:44:00+00:00,307.0,2.59,305.0,3.72,13.84,47.59359,-54.27349
2024-02-21 19:54:00+00:00,282.0,3.69,284.0,5.09,13.84,47.59359,-54.27349
2024-02-21 20:04:00+00:00,272.0,3.9,262.0,5.27,13.84,47.59359,-54.27349
2024-02-21 20:14:00+00:00,236.0,2.97,231.0,3.67,13.6,47.59359,-54.27349
2024-02-21 20:24:00+00:00,275.0,4.95,269.0,5.91,13.6,47.59359,-54.27349
2024-02-21 20:34:00+00:00,268.0,5.49,268.0,6.45,13.6,47.59359,-54.27349
2024-02-21 20:44:00+00:00,276.0,4.31,280.0,6.06,13.6,47.59359,-54.27349
2024-02-21 20:54:00+00:00,265.0,5.27,265.0,6.52,13.6,47.59359,-54.27349
2024-02-21 21:04:00+00:00,270.0,3.82,284.0,5.6,13.6,47.59359,-54.27349
2024-02-21 21:14:01+00:00,275.0,3.46,272.0,4.19,12.97,47.59359,-54.27349
2024-02-21 21:24:01+00:00,257.0,4.74,263.0,5.72,12.97,47.59359,-54.27349
2024-02-21 21:34:01+00:00,267.0,4.06,269.0,5.27,12.97,47.59359,-54.27349
2024-02-21 21:44:01+00:00,254.0,4.22,257.0,4.9,12.97,47.59359,-54.27349
2024-02-21 21:54:01+00:00,265.0,3.68,265.0,6.31,12.97,47.59359,-54.27349
2024-02-21 22:04:01+00:00,258.0,4.25,261.0,4.96,12.97,47.59359,-54.27349
2024-02-21 22:14:00+00:00,251.0,4.25,255.0,6.31,12.41,47.59359,-54.27349
2024-02-21 22:24:00+00:00,251.0,3.75,255.0,5.74,12.41,47.59359,-54.27349
2024-02-21 22:34:00+00:00,242.0,4.26,247.0,5.3,12.41,47.59359,-54.27349
2024-02-21 22:44:00+00:00,261.0,4.02,262.0,5.3,12.41,47.59359,-54.27349
2024-02-21 22:54:00+00:00,228.0,4.71,243.0,6.11,12.41,47.59359,-54.27349
2024-02-21 23:04:00+00:00,250.0,4.44,253.0,5.5,12.41,47.59359,-54.27349
2024-02-21 23:14:00+00:00,244.0,4.28,253.0,5.86,12.17,47.59359,-54.27349
2024-02-21 23:24:00+00:00,256.0,4.34,251.0,5.11,12.17,47.59359,-54.27349
2024-02-21 23:34:00+00:00,270.0,4.15,280.0,5.37,12.17,47.59359,-54.27349
2024-02-21 23:44:00+00:00,250.0,3.94,249.0,5.13,12.17,47.59359,-54.27349
2024-02-21 23:54:00+00:00,254.0,4.09,258.0,5.54,12.17,47.59359,-54.27349
